[Date Prev][Date Next][Thread Prev][Thread Next] - [Date Index][Thread Index][Author Index]
2 Line ISS Keps 9-28
- Subject: [sarex] 2 Line ISS Keps 9-28
- From: "Dave Larsen PhD" <doc@xxxxxxxxxxx>
- Date: Sun, 28 Sep 2003 02:46:52 -0700
ISS
1 25544U 98067A 03271.17623066 .00020945 00000-0 23341-3 0 5660
2 25544 51.6300 221.3275 0005413 298.7283 189.6440 15.62772298277097
----
Via the sarex mailing list at AMSAT.ORG courtesy of AMSAT-NA.
To unsubscribe, send "unsubscribe sarex" to Majordomo@amsat.org
AMSAT Home